Time,TemperatureF,DewpointF,PressureIn,WindDirection,WindDirectionDegrees,WindSpeedMPH,WindSpeedGustMPH,Humidity,HourlyPrecipIn,Conditions,Clouds,dailyrainin,SolarRadiationWatts/m^2,SoftwareType,DateUTC
2013-06-17 00:22:00,54.0,48.0,-100.00,SSE,147,0.0,0.0,80,0.00,,,0.00,4.000000,,2013-06-17 08:22:00,
2013-06-17 00:33:00,54.0,48.0,-100.00,SSE,147,0.0,0.0,80,0.00,,,0.00,4.000000,,2013-06-17 08:33:00,
2013-06-17 00:43:00,54.0,48.0,-100.00,SSE,147,0.0,0.0,80,0.00,,,0.00,4.000000,,2013-06-17 08:43:00,
2013-06-17 00:52:00,54.0,48.0,-100.00,SSE,147,0.0,0.0,80,0.00,,,0.00,4.000000,,2013-06-17 08:52:00,
2013-06-17 01:34:00,50.0,47.0,-100.00,SSE,147,0.0,0.0,88,0.00,,,0.00,1.000000,,2013-06-17 09:34:00,
2013-06-17 01:43:00,50.0,47.0,-100.00,SSE,147,0.0,0.0,88,0.00,,,0.00,1.000000,,2013-06-17 09:43:00,
2013-06-17 01:52:00,50.0,47.0,-100.00,SSE,147,0.0,0.0,88,0.00,,,0.00,1.000000,,2013-06-17 09:52:00,
2013-06-17 02:22:00,49.0,47.0,-100.00,SSE,149,0.0,0.0,92,0.00,,,0.00,0.000000,,2013-06-17 10:22:00,
2013-06-17 02:53:00,49.0,47.0,-100.00,SSE,149,0.0,0.0,92,0.00,,,0.00,0.000000,,2013-06-17 10:53:00,
2013-06-17 03:23:00,48.0,46.0,-100.00,SSE,149,0.0,0.0,94,0.00,,,0.00,0.000000,,2013-06-17 11:23:00,
2013-06-17 03:33:00,48.0,46.0,-100.00,SSE,149,0.0,0.0,94,0.00,,,0.00,0.000000,,2013-06-17 11:33:00,
2013-06-17 03:53:00,48.0,46.0,-100.00,SSE,149,0.0,0.0,94,0.00,,,0.00,0.000000,,2013-06-17 11:53:00,
2013-06-17 04:22:00,46.0,45.0,-100.00,SSE,149,0.0,0.0,96,0.00,,,0.00,1.000000,,2013-06-17 12:22:00,
2013-06-17 04:33:00,46.0,45.0,-100.00,SSE,149,0.0,0.0,96,0.00,,,0.00,1.000000,,2013-06-17 12:33:00,
2013-06-17 04:43:00,46.0,45.0,-100.00,SSE,149,0.0,0.0,96,0.00,,,0.00,1.000000,,2013-06-17 12:43:00,
2013-06-17 04:53:00,46.0,45.0,-100.00,SSE,149,0.0,0.0,96,0.00,,,0.00,1.000000,,2013-06-17 12:53:00,
2013-06-17 05:22:00,44.0,44.0,-100.00,SSE,154,0.0,0.0,99,0.00,,,0.00,3.000000,,2013-06-17 13:22:00,
2013-06-17 05:32:00,44.0,44.0,-100.00,SSE,154,0.0,0.0,99,0.00,,,0.00,3.000000,,2013-06-17 13:32:00,
2013-06-17 05:43:00,44.0,44.0,-100.00,SSE,154,0.0,0.0,99,0.00,,,0.00,3.000000,,2013-06-17 13:43:00,
2013-06-17 05:52:00,44.0,44.0,-100.00,SSE,154,0.0,0.0,99,0.00,,,0.00,3.000000,,2013-06-17 13:52:00,
2013-06-17 06:22:00,45.0,45.0,-100.00,NE,35,0.0,0.0,100,0.00,,,0.00,9.000000,,2013-06-17 14:22:00,
2013-06-17 06:34:00,45.0,45.0,-100.00,NE,35,0.0,0.0,100,0.00,,,0.00,9.000000,,2013-06-17 14:34:00,
2013-06-17 06:43:00,45.0,45.0,-100.00,NE,35,0.0,0.0,100,0.00,,,0.00,9.000000,,2013-06-17 14:43:00,
2013-06-17 06:53:00,45.0,45.0,-100.00,NE,35,0.0,0.0,100,0.00,,,0.00,9.000000,,2013-06-17 14:53:00,
2013-06-17 07:33:00,46.0,46.0,-100.00,NNE,22,0.0,0.0,100,0.00,,,0.00,17.000000,,2013-06-17 15:33:00,
2013-06-17 07:43:00,46.0,46.0,-100.00,NNE,22,0.0,0.0,100,0.00,,,0.00,17.000000,,2013-06-17 15:43:00,
2013-06-17 07:52:00,46.0,46.0,-100.00,NNE,22,0.0,0.0,100,0.00,,,0.00,17.000000,,2013-06-17 15:52:00,
2013-06-17 08:22:00,55.0,52.0,-100.00,North,1,0.0,1.0,91,0.00,,,0.00,85.000000,,2013-06-17 16:22:00,
2013-06-17 08:33:00,55.0,52.0,-100.00,North,1,0.0,1.0,91,0.00,,,0.00,85.000000,,2013-06-17 16:33:00,
2013-06-17 08:43:00,55.0,52.0,-100.00,North,1,0.0,1.0,91,0.00,,,0.00,85.000000,,2013-06-17 16:43:00,
2013-06-17 08:53:00,55.0,52.0,-100.00,North,1,0.0,1.0,91,0.00,,,0.00,85.000000,,2013-06-17 16:53:00,
2013-06-17 09:22:00,59.0,50.0,-100.00,SW,214,1.0,1.0,73,0.00,,,0.00,207.000000,,2013-06-17 17:22:00,
2013-06-17 09:33:00,59.0,50.0,-100.00,SW,214,1.0,1.0,73,0.00,,,0.00,207.000000,,2013-06-17 17:33:00,
2013-06-17 09:43:00,59.0,50.0,-100.00,SW,214,1.0,1.0,73,0.00,,,0.00,207.000000,,2013-06-17 17:43:00,
2013-06-17 09:52:00,59.0,50.0,-100.00,SW,214,1.0,1.0,73,0.00,,,0.00,207.000000,,2013-06-17 17:52:00,
2013-06-17 10:23:00,63.0,51.0,-100.00,WSW,244,1.0,3.0,65,0.00,,,0.00,78.000000,,2013-06-17 18:23:00,
2013-06-17 10:33:00,63.0,51.0,-100.00,WSW,244,1.0,3.0,65,0.00,,,0.00,78.000000,,2013-06-17 18:33:00,
2013-06-17 10:42:00,63.0,51.0,-100.00,WSW,244,1.0,3.0,65,0.00,,,0.00,78.000000,,2013-06-17 18:42:00,
2013-06-17 10:53:00,63.0,51.0,-100.00,WSW,244,1.0,3.0,65,0.00,,,0.00,78.000000,,2013-06-17 18:53:00,
2013-06-17 11:22:00,75.0,54.0,-100.00,SW,218,0.0,2.0,48,-99.99,,,0.00,168.000000,,2013-06-17 19:22:00,
2013-06-17 11:33:00,75.0,54.0,-100.00,SW,218,0.0,2.0,48,-99.99,,,0.00,168.000000,,2013-06-17 19:33:00,
2013-06-17 11:43:00,75.0,54.0,-100.00,SW,218,0.0,2.0,48,-99.99,,,0.00,168.000000,,2013-06-17 19:43:00,
2013-06-17 11:53:00,75.0,54.0,-100.00,SW,218,0.0,2.0,48,-99.99,,,0.00,168.000000,,2013-06-17 19:53:00,
2013-06-17 12:22:00,82.0,52.0,-100.00,SW,233,1.0,4.0,35,0.00,,,0.00,782.000000,,2013-06-17 20:22:00,
2013-06-17 12:34:00,82.0,52.0,-100.00,SW,233,1.0,4.0,35,0.00,,,0.00,782.000000,,2013-06-17 20:34:00,
2013-06-17 12:43:00,82.0,52.0,-100.00,SW,233,1.0,4.0,35,0.00,,,0.00,782.000000,,2013-06-17 20:43:00,
2013-06-17 12:52:00,82.0,52.0,-100.00,SW,233,1.0,4.0,35,0.00,,,0.00,782.000000,,2013-06-17 20:52:00,
2013-06-17 15:32:00,90.0,50.0,-100.00,WSW,245,1.0,4.0,26,-99.99,,,0.00,891.000000,,2013-06-17 23:32:00,
2013-06-17 15:42:00,90.0,50.0,-100.00,WSW,245,1.0,4.0,26,-99.99,,,0.00,891.000000,,2013-06-17 23:42:00,
2013-06-17 15:52:00,90.0,50.0,-100.00,WSW,245,1.0,4.0,26,-99.99,,,0.00,891.000000,,2013-06-17 23:52:00,
2013-06-17 16:32:00,92.0,50.0,-100.00,NW,308,1.0,5.0,24,0.00,,,0.00,845.000000,,2013-06-18 00:32:00,
2013-06-17 17:23:00,87.0,46.0,-100.00,West,270,1.0,5.0,24,-99.99,,,0.00,705.000000,,2013-06-18 01:23:00,
2013-06-17 17:34:00,87.0,46.0,-100.00,West,270,1.0,5.0,24,-99.99,,,0.00,705.000000,,2013-06-18 01:34:00,
2013-06-17 17:44:00,87.0,46.0,-100.00,West,270,1.0,5.0,24,-99.99,,,0.00,705.000000,,2013-06-18 01:44:00,
2013-06-17 17:53:00,87.0,46.0,-100.00,West,270,1.0,5.0,24,-99.99,,,0.00,705.000000,,2013-06-18 01:53:00,
2013-06-17 18:22:00,89.0,52.0,-100.00,WSW,237,1.0,4.0,28,0.00,,,0.00,392.000000,,2013-06-18 02:22:00,
2013-06-17 18:34:00,89.0,52.0,-100.00,WSW,237,1.0,4.0,28,0.00,,,0.00,392.000000,,2013-06-18 02:34:00,
2013-06-17 18:43:00,89.0,52.0,-100.00,WSW,237,1.0,4.0,28,0.00,,,0.00,392.000000,,2013-06-18 02:43:00,
2013-06-17 18:53:00,89.0,52.0,-100.00,WSW,237,1.0,4.0,28,0.00,,,0.00,392.000000,,2013-06-18 02:53:00,
2013-06-17 19:23:00,84.0,48.0,-100.00,West,267,1.0,4.0,29,0.00,,,0.00,248.000000,,2013-06-18 03:23:00,
2013-06-17 19:34:00,84.0,48.0,-100.00,West,267,1.0,4.0,29,0.00,,,0.00,248.000000,,2013-06-18 03:34:00,
2013-06-17 19:42:00,84.0,48.0,-100.00,West,267,1.0,4.0,29,0.00,,,0.00,248.000000,,2013-06-18 03:42:00,
2013-06-17 19:53:00,84.0,48.0,-100.00,West,267,1.0,4.0,29,0.00,,,0.00,248.000000,,2013-06-18 03:53:00,
2013-06-17 20:22:00,86.0,50.0,-100.00,NNW,345,1.0,6.0,29,0.00,,,0.00,132.000000,,2013-06-18 04:22:00,
2013-06-17 20:34:00,86.0,50.0,-100.00,NNW,345,1.0,6.0,29,0.00,,,0.00,132.000000,,2013-06-18 04:34:00,
2013-06-17 20:43:00,86.0,50.0,-100.00,NNW,345,1.0,6.0,29,0.00,,,0.00,132.000000,,2013-06-18 04:43:00,
2013-06-17 21:22:00,82.0,47.0,-100.00,North,8,2.0,6.0,30,-99.99,,,0.00,73.000000,,2013-06-18 05:22:00,
2013-06-17 21:33:00,82.0,47.0,-100.00,North,8,2.0,6.0,30,-99.99,,,0.00,73.000000,,2013-06-18 05:33:00,
2013-06-17 21:43:00,82.0,47.0,-100.00,North,8,2.0,6.0,30,-99.99,,,0.00,73.000000,,2013-06-18 05:43:00,
2013-06-17 21:53:00,82.0,47.0,-100.00,North,8,2.0,6.0,30,-99.99,,,0.00,73.000000,,2013-06-18 05:53:00,
2013-06-17 22:32:00,73.0,47.0,-100.00,North,4,0.0,5.0,40,0.00,,,0.00,19.000000,,2013-06-18 06:32:00,
2013-06-17 22:43:00,73.0,47.0,-100.00,North,4,0.0,5.0,40,0.00,,,0.00,19.000000,,2013-06-18 06:43:00,
2013-06-17 22:52:00,73.0,47.0,-100.00,North,4,0.0,5.0,40,0.00,,,0.00,19.000000,,2013-06-18 06:52:00,
2013-06-17 23:22:00,65.0,53.0,-100.00,SSW,198,0.0,2.0,66,0.00,,,0.00,9.000000,,2013-06-18 07:22:00,
2013-06-17 23:33:00,65.0,53.0,-100.00,SSW,198,0.0,2.0,66,0.00,,,0.00,9.000000,,2013-06-18 07:33:00,
2013-06-17 23:43:00,65.0,53.0,-100.00,SSW,198,0.0,2.0,66,0.00,,,0.00,9.000000,,2013-06-18 07:43:00,
2013-06-17 23:52:00,65.0,53.0,-100.00,SSW,198,0.0,2.0,66,0.00,,,0.00,9.000000,,2013-06-18 07:52:00,